www.pogodaiklimat.ru

Погода и климат >> Архив погоды >> Норвегия >> Obrestad Fyr


ПОГОДА в Obrestad Fyr

  • Прогноз погоды в Obrestad Fyr
  • Монитор погоды в Obrestad Fyr
  • Климат города

АРХИВ ПОГОДЫ в Obrestad Fyr

Время (UTC), дата Ветер
(напр.,м/с)
 
Видим.   Явления Облачность Т
(С)
Тd
(С)
f
(%)
Тe
(С)
Тes
(С)
Комфортность P
(гПа)
Po
(гПа)
Тmin
(С)
Tmax
(С)
R
(мм)
R24
(мм)
S
(см)
10 12.12 В 6
{9}
н/о н/о +1.2 -3.2 72 -5 -5 1031.2 1028.0
11 12.12 В 6
{9}
н/о н/о +1.7 -2.6 73 -4 -4 1031.0 1027.8
12 12.12 ЮВ 7
{12}
н/о н/о +2.4 -2.7 69 -4 -4 1030.7 1027.5
14 12.12 ЮВ 5
{8}
н/о н/о +1.6 -2.9 72 -4 -4 1030.9 1027.7
13 12.12 ЮВ 5
{10}
н/о н/о +1.7 -2.9 71 -4 -4 1031.1 1027.9
15 12.12 В 5
{8}
н/о н/о +0.3 -3.3 77 -6 -6 1031.0 1027.8
16 12.12 В 5
{7}
н/о н/о -0.4 -3.4 80 -6 -6 1031.3 1028.0
17 12.12 ЮВ 5
{6}
н/о н/о +0.7 -3.3 75 -5 -5 1031.1 1027.9
18 12.12 ЮВ 4
{10}
н/о н/о +1.6 -2.6 74 -3 -3 1031.4 1028.1 -0.4 +2.6
20 12.12 ЮВ 5
{8}
н/о н/о +0.2 -3.3 77 -6 -6 1031.3 1028.1
19 12.12 ЮВ 4
{7}
н/о н/о +0.1 -3.1 79 -5 -5 1031.3 1028.0
21 12.12 ЮВ 5
{7}
н/о н/о +1.1 -2.8 75 -5 -5 1031.4 1028.2
22 12.12 ЮВ 5
{8}
н/о н/о +1.0 -2.8 76 -5 -5 1031.3 1028.1
23 12.12 ЮВ 6
{9}
н/о н/о +0.9 -2.8 76 -5 -5 1031.2 1027.9
00 13.12 ЮВ 7
{10}
н/о н/о +1.2 -2.7 75 -5 -5 1031.0 1027.7
02 13.12 ЮВ 5
{10}
н/о н/о +0.6 -3.3 75 -5 -5 1031.5 1028.2
01 13.12 ЮВ 6
{9}
н/о н/о +1.1 -2.9 75 -5 -5 1031.0 1027.8
03 13.12 ЮВ 6
{8}
н/о н/о +0.2 -3.5 76 -6 -6 1031.0 1027.8
04 13.12 ЮВ 6
{8}
н/о н/о -0.2 -3.2 80 -7 -7 1030.9 1027.6
05 13.12 В 5 н/о н/о -0.9 -3.7 81 -7 -7 1030.8 1027.5
06 13.12 В 3
{10}
н/о н/о -1.5 -4.1 82 -6 -6 1030.9 1027.7 -1.5 +1.7
08 13.12 СВ 1
{4}
н/о н/о -1.7 -4.4 82 -4 -4 1031.0 1027.7
07 13.12 ЮВ 3 н/о н/о -1.5 -4.2 82 -6 -6 1030.9 1027.7
09 13.12 В 3
{5}
н/о н/о -1.3 -4.5 79 -6 -6 1031.0 1027.8
10 13.12 ЮВ 5
{7}
н/о н/о +0.1 -5.1 68 -6 -6 1031.0 1027.8
11 13.12 ЮВ 6
{9}
н/о н/о +0.4 -5.5 65 -6 -6 1030.9 1027.7
12 13.12 ЮВ 6
{10}
н/о н/о +0.6 -5.6 63 -5 -5 1030.9 1027.7
14 13.12 ЮВ 8
{12}
н/о н/о -0.3 -5.3 69 -8 -8 1030.8 1027.5
13 13.12 ЮВ 7
{10}
н/о н/о +0.2 -5.5 65 -6 -6 1030.8 1027.5
15 13.12 В 7
{11}
н/о н/о -1.2 -5.1 75 -8 -8 1031.1 1027.9
16 13.12 В 8
{13}
н/о н/о -0.6 -4.5 75 -8 -8 1031.0 1027.7
17 13.12 В 8
{13}
н/о н/о -0.3 -4.4 74 -8 -8 1030.9 1027.7
18 13.12 н/о 1031.5 1028.3 -1.9 +0.8
20 13.12 В 2
{8}
н/о н/о -1.4 -4.7 78 -5 -5 1031.6 1028.3
19 13.12 В 5
{8}
н/о н/о -0.3 -4.4 74 -6 -6 1031.2 1028.0
21 13.12 В 2
{4}
н/о н/о -1.0 -4.6 77 -5 -5 1031.9 1028.7
22 13.12 С 2
{3}
н/о н/о -1.4 -5.0 76
23 13.12 В 2
{5}
н/о н/о -0.7 -4.8 74 -4 -4 1031.9 1028.7
00 14.12 ЮВ 2
{8}
н/о н/о -0.3 -4.9 71 -4 -4 1032.0 1028.7
02 14.12 В 7
{9}
н/о н/о +0.6 -4.7 68
01 14.12 ЮВ 4
{6}
н/о н/о 0.0 -4.5 72 -5 -5 1031.8 1028.6
03 14.12 В 7
{11}
н/о н/о +0.3 -5.2 67 -6 -6 1031.5 1028.2
04 14.12 В 6 н/о н/о -0.9 -5.2 73 -8 -8 1031.2 1028.0
05 14.12 В 5
{8}
н/о н/о -1.1 -5.3 73 -7 -7 1031.2 1027.9
06 14.12 В 4
{11}
н/о н/о -1.2 -5.2 74 -7 -7 1031.1 1027.9 -2.0 +0.8
08 14.12 В 2
{5}
н/о н/о -2.2 -5.8 76 -6 -6 1031.8 1028.5
07 14.12 ЮВ 2
{6}
н/о н/о -1.2 -5.2 74 -5 -5 1031.4 1028.2
09 14.12 В 2
{4}
н/о н/о -2.3 -5.9 76 -6 -6 1031.6 1028.3
10 14.12 В 5
{7}
н/о н/о -0.2 -4.9 71 -6 -6 1031.4 1028.2
11 14.12 ЮВ 4
{7}
н/о н/о +0.9 -5.7 61 -4 -4 1031.2 1028.0
12 14.12 ЮВ 7
{10}
н/о н/о +1.0 -5.1 64 -5 -5 1030.9 1027.7
14 14.12 ЮВ 7
{10}
н/о н/о +1.3 -4.2 67 -5 -5 1031.1 1027.8
13 14.12 ЮВ 7
{10}
н/о н/о +1.3 -4.4 66 -5 -5 1030.9 1027.7
15 14.12 ЮВ 7
{9}
н/о н/о +1.2 -4.1 68 -5 -5 1031.2 1028.0
16 14.12 ЮВ 7
{10}
н/о н/о +1.1 -4.1 68 -5 -5 1031.1 1027.9
17 14.12 ЮВ 8
{12}
н/о н/о +1.3 -4.1 67 -5 -5 1030.7 1027.5
18 14.12 ЮВ 7
{12}
н/о н/о +1.0 -4.1 69 -5 -5 1030.7 1027.5 -2.7 +1.6
20 14.12 ЮВ 9
{12}
н/о н/о +1.1 -3.7 70 -6 -6 1030.5 1027.3
19 14.12 ЮВ 6
{10}
н/о н/о +1.1 -4.1 68 -5 -5 1030.8 1027.5
21 14.12 ЮВ 5
{11}
н/о н/о +1.0 -3.5 72 -5 -5 1030.8 1027.6
22 14.12 ЮВ 7
{11}
н/о н/о +1.3 -3.1 72 -5 -5 1030.6 1027.4
23 14.12 ЮВ 7
{10}
н/о н/о +1.2 -3.4 71 -5 -5 1030.2 1026.9
00 15.12 ЮВ 6
{12}
н/о н/о +1.4 -3.7 69 -5 -5 1029.9 1026.7
02 15.12 ЮВ 8
{12}
н/о н/о +1.4 -3.4 70 -5 -5 1029.6 1026.4
01 15.12 ЮВ 7
{11}
н/о н/о +1.2 -3.9 69 -5 -5 1029.8 1026.5
03 15.12 ЮВ 7
{12}
н/о н/о +1.6 -3.5 69 -5 -5 1029.1 1025.9
04 15.12 ЮВ 8
{13}
н/о н/о +1.8 -3.4 68 -5 -5 1028.5 1025.3
05 15.12 ЮВ 9
{14}
н/о н/о +1.7 -3.1 70 -5 -5 1027.9 1024.7
06 15.12 ЮВ 7
{14}
н/о н/о +1.8 -2.9 71 -4 -4 1027.9 1024.7 +0.8 +2.0
08 15.12 ЮВ 8
{13}
н/о н/о +1.6 -2.6 74 -5 -5 1027.3 1024.1
07 15.12 ЮВ 9
{14}
н/о н/о +1.8 -3.0 70 -5 -5 1027.4 1024.2
09 15.12 ЮВ 10
{16}
н/о н/о +1.7 -2.3 75 -6 -6 1027.4 1024.2
10 15.12 ЮВ 10
{17}
н/о н/о +1.7 -2.8 72 -6 -6 1026.7 1023.5
11 15.12 ЮВ 10
{15}
н/о н/о +1.9 -2.5 73 -5 -5 1025.7 1022.5
12 15.12 ЮВ 10
{17}
н/о н/о +1.4 -1.1 83 -6 -6 1025.2 1022.0
14 15.12 ЮВ 15
{25}
н/о н/о +2.3 -1.3 77 -6 -6 1024.1 1021.0
13 15.12 ЮВ 11
{17}
н/о н/о +1.9 -0.2 86 -6 -6 1025.1 1021.9
15 15.12 ЮВ 12
{19}
н/о н/о +1.9 -1.3 79
16 15.12 ЮВ 12
{21}
н/о н/о +2.1 -1.9 75 -6 -6 1022.3 1019.1
17 15.12 ЮВ 15
{23}
н/о н/о +2.5 -2.8 68 -6 -6 1020.6 1017.4
18 15.12 16 н/о +0.8 +3.1 0.3
20 15.12 ЮВ 16
{25}
н/о н/о +1.8 -0.1 87 -7 -7 1018.1 1015.0
19 15.12 ЮВ 20
{25}
н/о н/о +2.9 -2.0 70 -6 -6 1018.5 1015.3
21 15.12 ЮВ 18
{26}
н/о н/о +2.8 -2.3 69 -6 -6 1017.5 1014.3
22 15.12 ЮВ 16
{25}
н/о н/о +3.2 -2.5 66 -5 -5 1016.4 1013.2
23 15.12 ЮВ 17
{25}
н/о н/о +3.4 -2.1 67 -5 -5 1015.0 1011.8
00 16.12 ЮВ 17
{26}
н/о н/о +3.0 -1.0 75 -6 -6 1014.5 1011.3
02 16.12 ЮВ 14
{20}
н/о н/о +2.5 -0.4 81 -6 -6 1013.6 1010.5
01 16.12 ЮВ 14
{23}
н/о н/о +2.1 -0.1 85 -6 -6 1013.8 1010.6
03 16.12 ЮВ 14
{23}
н/о н/о +2.6 -0.7 79 -6 -6 1012.8 1009.6
04 16.12 ЮВ 14
{23}
н/о н/о +2.6 -1.9 72 -5 -5 1011.6 1008.5
05 16.12 ЮВ 13
{24}
н/о н/о +2.6 -2.5 69 -5 -5 1011.2 1008.1
06 16.12 ЮВ 16
{24}
н/о н/о +2.8 -2.7 67 -6 -6 1010.6 1007.5 +1.5 +3.8
08 16.12 ЮВ 15
{25}
н/о н/о +1.1 -1.2 85 -8 -8 1010.5 1007.3
07 16.12 ЮВ 16
{25}
н/о н/о +2.5 -3.1 67 -6 -6 1010.6 1007.5
09 16.12 ЮВ 17
{26}
н/о н/о +2.1 -3.2 68 -7 -7 1010.3 1007.1
10 16.12 ЮВ 19
{28}
н/о н/о +2.2 -4.6 61 -7 -7 1010.5 1007.3
11 16.12 ЮВ 17
{26}
н/о н/о +2.1 -3.8 65 -7 -7 1010.2 1007.0
12 16.12 ЮВ 19
{28}
н/о н/о +2.5 -4.1 62 -6 -6 1009.6 1006.5
14 16.12 ЮВ 12
{24}
н/о н/о +2.6 -2.8 68 -5 -5 1010.8 1007.7
13 16.12 ЮВ 17
{27}
н/о н/о +3.1 -3.2 63 -5 -5 1009.5 1006.4
15 16.12 ЮВ 13
{19}
н/о н/о +2.2 -3.5 66 -6 -6 1011.2 1008.0
16 16.12 ЮВ 14
{19}
н/о н/о +2.2 -3.3 67 -6 -6 1011.6 1008.4
17 16.12 ЮВ 12
{19}
н/о н/о +1.7 -4.3 64 -6 -6 1012.1 1008.9
18 16.12 ЮВ 13
{27}
н/о н/о +1.8 -4.6 62 -6 -6 1012.5 1009.3 +0.8 +3.1
20 16.12 ЮВ 8
{15}
н/о н/о +1.7 -4.3 64 -5 -5 1013.3 1010.1
19 16.12 ЮВ 11
{19}
н/о н/о +1.8 -4.9 61 -6 -6 1012.7 1009.5
21 16.12 ЮВ 8
{15}
н/о н/о +1.5 -4.0 67 -5 -5 1013.7 1010.6
22 16.12 ЮВ 8
{13}
н/о н/о +1.6 -3.9 67 -5 -5 1014.0 1010.8
23 16.12 ЮВ 8
{13}
н/о н/о +1.5 -4.2 66 -5 -5 1014.3 1011.1
00 17.12 ЮВ 7
{19}
н/о н/о +1.2 -3.9 69 1014.3 1011.2
02 17.12 ЮВ 7
{11}
н/о н/о +1.5 -3.4 70 -5 -5 1014.5 1011.3
01 17.12 ЮВ 8
{11}
н/о н/о +1.5 -3.8 68 -5 -5 1014.5 1011.3
03 17.12 ЮВ 7
{12}
н/о н/о +1.5 -3.6 69 -5 -5 1014.8 1011.7
04 17.12 ЮВ 7
{11}
н/о н/о +1.5 -3.4 70
05 17.12 ЮВ 7
{9}
н/о н/о +1.6 -3.2 70 -5 -5 1015.3 1012.2
06 17.12 ЮВ 7
{12}
н/о н/о +1.6 -3.2 70 -5 -5 1015.8 1012.6 +1.1 +2.0
08 17.12 ЮВ 8
{11}
н/о н/о +1.5 -3.2 71
07 17.12 ЮВ 8
{12}
н/о н/о +1.7 -3.1 70 -5 -5 1016.2 1013.0
09 17.12 ЮВ 8
{12}
н/о н/о +1.7 -2.8 72 -5 -5 1017.2 1014.0
10 17.12 ЮВ 8
{12}
н/о н/о +1.8 -2.6 73 -5 -5 1017.6 1014.4
11 17.12 ЮВ 9
{13}
н/о н/о +1.9 -2.8 71 -5 -5 1017.9 1014.8
12 17.12 ЮВ 9
{13}
н/о н/о +2.1 -2.5 72 -5 -5 1018.2 1015.0
14 17.12 ЮВ 7
{11}
н/о н/о +1.3 -2.7 75 -5 -5 1018.8 1015.6
13 17.12 ЮВ 8
{13}
н/о н/о +1.8 -2.6 73 -5 -5 1018.5 1015.3
15 17.12 ЮВ 8
{13}
н/о н/о +1.2 -3.0 74 -6 -6 1018.8 1015.6
16 17.12 ЮВ 9
{12}
н/о н/о +1.0 -3.0 75 -6 -6 1019.2 1016.0
17 17.12 ЮВ 9
{12}
н/о н/о +0.9 -3.1 75 -6 -6 1019.7 1016.5
18 17.12 ЮВ 9
{13}
н/о н/о +0.8 -3.3 74 -7 -7 1020.3 1017.1 +0.5 +2.2
20 17.12 ЮВ 10
{14}
н/о н/о +0.9 -3.3 73 -7 -7 1020.8 1017.6
19 17.12 ЮВ 9
{14}
н/о н/о +0.8 -3.3 74 -7 -7 1020.6 1017.4
21 17.12 ЮВ 10
{14}
н/о н/о +0.8 -3.6 72 -7 -7 1020.6 1017.4
22 17.12 ЮВ 11
{16}
н/о н/о +0.6 -3.8 72 -7 -7 1020.3 1017.1
23 17.12 ЮВ 11
{16}
н/о н/о +0.8 -3.8 71 -7 -7 1020.6 1017.4
00 18.12 ЮВ 10
{16}
н/о н/о +0.9 -3.9 70 -7 -7 1020.9 1017.7
02 18.12 ЮВ 8
{13}
н/о н/о +0.9 -4.0 70 -6 -6 1020.8 1017.6
01 18.12 ЮВ 9
{14}
н/о н/о +0.9 -4.1 69 -6 -6 1020.5 1017.3
03 18.12 ЮВ 10
{15}
н/о н/о +1.4 -3.6 69 -6 -6 1020.9 1017.7
04 18.12 ЮВ 9
{12}
н/о н/о +1.6 -3.0 71 -5 -5 1020.1 1016.9
05 18.12 ЮВ 10
{13}
н/о н/о +1.7 -2.7 73 -6 -6 1019.6 1016.5
06 18.12 ЮВ 9
{15}
н/о н/о +2.3 -2.2 72 -5 -5 1019.4 1016.2 +0.4 +2.3
08 18.12 ЮВ 10
{16}
н/о н/о +2.3 -1.6 75 -5 -5 1018.6 1015.4
07 18.12 ЮВ 10
{15}
н/о н/о +2.5 -1.7 74 -5 -5 1018.8 1015.6
09 18.12 ЮВ 10
{16}
н/о н/о +2.2 -1.9 74 -5 -5 1018.3 1015.1
10 18.12 ЮВ 11
{15}
н/о н/о +2.6 -1.7 73 -5 -5 1017.6 1014.5
11 18.12 ЮВ 11
{17}
н/о н/о +2.5 -1.8 73 -5 -5 1017.1 1013.9
12 18.12 ЮВ 12
{19}
н/о н/о +2.6 -1.4 75 -5 -5 1016.3 1013.2
14 18.12 ЮВ 12
{19}
н/о н/о +2.8 -0.6 78 -5 -5 1015.5 1012.3
13 18.12 ЮВ 13
{19}
н/о н/о +2.8 -1.0 76 -5 -5 1015.9 1012.7
15 18.12 ЮВ 11
{18}
н/о н/о +3.1 -0.3 78 -4 -4 1014.8 1011.6
16 18.12 ЮВ 12
{18}
н/о н/о +3.2 -0.3 78 -4 -4 1013.9 1010.7
17 18.12 ЮВ 10
{18}
н/о н/о +3.4 -0.4 76 -3 -3 1013.3 1010.2
18 18.12 ЮВ 12
{19}
н/о н/о +4.5 +0.5 75 1013.3 1010.2 +1.9 +4.5
20 18.12 ЮВ 15
{21}
н/о н/о +4.6 +1.5 80 -3 -3 1012.4 1009.2
19 18.12 ЮВ 14
{19}
н/о н/о +4.5 +0.9 77 -3 -3 1012.6 1009.4
21 18.12 ЮВ 15
{21}
н/о н/о +4.6 +1.6 81 -3 -3 1012.0 1008.9
22 18.12 ЮВ 14
{21}
н/о н/о +4.0 +2.1 87 -4 -4 1011.8 1008.6
23 18.12 ЮВ 12
{18}
н/о н/о +4.0 +2.6 91 -3 -3 1011.6 1008.4
00 19.12 ЮВ 13
{21}
н/о н/о +4.5 +2.6 87 -3 -3 1010.8 1007.7
02 19.12 ЮВ 12
{17}
н/о н/о +4.3 +2.1 86 -3 -3 1009.8 1006.6
01 19.12 ЮВ 11
{20}
н/о н/о +4.3 +2.2 86 -3 -3 1010.2 1007.1
03 19.12 ЮВ 12
{18}
н/о н/о +4.6 +2.1 84 -3 -3 1008.9 1005.8
04 19.12 ЮВ 11
{18}
н/о н/о +4.6 +2.1 84 -2 -2 1008.4 1005.3
05 19.12 ЮВ 11
{18}
н/о н/о +4.9 +2.1 82 -2 -2 1007.3 1004.2
06 19.12 ЮВ 11
{20}
н/о н/о +4.9 +1.9 81 -2 -2 1007.3 1004.2 +3.8 +5.2
08 19.12 ЮВ 12
{18}
н/о н/о +5.3 +1.4 76 -1 -1 1006.8 1003.7
07 19.12 ЮВ 13
{20}
н/о н/о +5.2 +1.6 78 -2 -2 1006.5 1003.4

 

Местоположение метеостанции Obrestad Fyr (Норвегия): широта 58.65 долгота 5.56 высота над уровнем моря 24 м.

В архиве по умолчанию представлена погода в Obrestad Fyr за последнюю неделю. Архивные данные за месяц целиком и за предыдущие месяцы, начиная с января 2011 года, Вы можете получить, выбрав интересующий диапазон дат из раскрывающегося списка и нажав кнопку "Ввод!".


*Определитесь, кто Вы:
робот инопланетянин человек

Внимание! Время в таблицах - всемирное. Для получения местного времени необходимо прибавить поправку, которая в Obrestad Fyr равна 1 ч.

Смотрите также архив погоды в соседних городах и на ближайших метеорологических станциях:

Погода в Saerheim (Норвегия) (13 км)
Погода в Stavanger Lufthavn (Норвегия) (26 км)
Погода в Eigeroya (Норвегия) (29 км)
Погода в Stavanger (Норвегия) (36 км)
Погода в Kvitsoy (Норвегия) (47 км)
Погода в Liarvatn (Норвегия) (55 км)
Погода в Eik-Hove (Норвегия) (57 км)
Погода в Fister-Sigmundstad (Норвегия) (64 км)
Погода в Haugesund Lufthavn (Норвегия) (81 км)
Погода в Utsira Fyr (Норвегия) (83 км)

Пояснения к столбцам:

Ветер - указаны скорость ветра в м/с - средняя за 10 мин, порывы в срок и между сроками (в фигурных скобках) и направление, откуда дует ветер: С - северный, СВ - северо-восточный, В - восточный, ЮВ - юго-восточный, Ю - южный, ЮЗ - юго-западный, З - западный, СЗ - северо-западный.
Видимость - горизонтальная дальность видимости в метрах или километрах. При видимости от 1 до 10 км при отсутствии осадков обычно наблюдается дымка, при ухудшении видимости до 1 км и менее - туман. В сухую погоду видимость может ухудшаться дымом, пылью или мглою.
Явления - указаны атмосферные явления, наблюдавшиеся в срок или в последний час перед сроком; фигурными скобками обозначены явления, наблюдавшиеся между сроками (за 1-3 часа до срока); квадратными скобками обозначены град или гололедные отложения с указанием их диаметра в мм.
Облачность - указаны через наклонную черту общая и нижняя облачность в баллах и высота нижней границы облаков в метрах; квадратными скобками обозначены формы облаков: Ci - перистые, Cs - перисто-слоистые, Cc - перисто-кучевые, Ac - высококучевые, As - высокослоистые, Sc - слоисто-кучевые, Ns - слоисто-дождевые, Cu - кучевые, Cb - кучево-дождевые. Подробнее классификацию облаков см. в Атласе облаков (PDF).
T - Температура воздуха - температура, измеренная на высоте 2 м над землей.
Td - Температура точки росы - температура, при понижении до которой содержащийся в воздухе водяной пар достигнет насыщения.
f - Относительная влажность воздуха - влажноcть воздуха, измеренная на высоте 2 м над землей.
Te - Эффективная температура - температура, которую ощущает одетый по сезону человек в тени. Характеристика душности погоды. При расчете учитывается влияние влажности воздуха и скорости ветра на теплоощущения человека.
Tes - Эффективная температура на солнце - температура, которую ощущает человек, с поправкой на солнечный нагрев. Характеристика знойности погоды. Зависит от высоты солнца над горизонтом, облачности и скорости ветра. Ночью, в пасмурную погоду, а также при ветре 12 м/с и более поправка равна нулю.
P - Атмосферное давление - приведенное к уровню моря атмосферное давление.
Po - Атмосферное давление - измеренное на уровне метеостанции атмосферное давление.
Tmin - Минимальная температура - минимум температуры воздуха на высоте 2 м над землей.
Tmax - Максимальная температура - максимум температуры воздуха на высоте 2 м над землей.
R - Количество осадков - Количество выпавших осадков за период времени, мм. При наведении курсора мыши на число - период времени, за который выпало указанное количество осадков.
R24 - Количество осадков - Количество выпавших осадков за 24 часа, мм.
S - Снежный покров - Высота снежного покрова, см. При наведении курсора мыши на число - состояние снежного покрова и степень покрытия местности в баллах.